Location: Biberach+an+der+Riss
(48.0937°N, 9.7888°E)
Time: 00:42:58
(UTC+01:00)

ISS - Visible Passes

Search period start: 20 February 2018 00:00
Search period end: 02 March 2018 00:00
Orbit: 403 x 407 km, 51.6° (Epoch: 20 February)

Date Brightness Start Highest point End Pass type
(mag) Time Alt. Az. Time Alt. Az. Time Alt. Az.
26 Feb -1.0 06:24:29 10° S 06:26:43 17° SE 06:28:58 10° E visible
27 Feb -0.5 05:34:24 10° SE 05:34:42 10° SE 05:35:01 10° SE visible
28 Feb -2.2 06:15:23 10° SSW 06:18:22 33° SE 06:21:22 10° E visible
01 Mar -1.5 05:23:59 11° S 05:26:14 21° SE 05:28:44 10° E visible
